Location: Banios
(43.0451°N, 0.2335°E)
Time: 09:39:24
(UTC+00:00)

A-11 Canister half - Pass Details

Date: 14 May 2021
Orbit: 1527 x 1681 km, 47.3° (Epoch: 22 June)

Event Time Altitude Azimuth Distance (km) Brightness Sun altitude
Rises 06:40:21 0° 192° (SSW) 4,680 11.4 20.7°
Reaches altitude 10° 06:44:02 10° 180° (S) 3,716 11.0 21.4°
Maximum altitude 06:51:16 26° 129° (SE) 2,727 11.3 22.7°
Drops below altitude 10° 06:58:39 10° 78° (ENE) 3,814 13.0 24.0°
Sets 07:02:27 0° 67° (ENE) 4,829 12.8 24.7°
